Location: Erlenbrunn
(49.1717°N, 7.6142°E)
Time: 05:27:19
(UTC+00:00)

Cosmos 1939 Rocket - Pass Details

Date: 25 November 2020
Orbit: 532 x 584 km, 97.4° (Epoch: 24 January)

Event Time Altitude Azimuth Distance (km) Brightness Sun altitude
Rises 17:41:09 0° 173° (S) 2,666 6.4 -19.6°
Reaches altitude 10° 17:43:15 10° 177° (S) 1,783 5.5 -19.9°
Maximum altitude 17:47:04 63° 259° (WSW) 604 3.2 -20.5°
Drops below altitude 10° 17:50:58 10° 341° (NNW) 1,816 5.6 -21.2°
Sets 17:53:08 0° 345° (NNW) 2,721 6.5 -21.5°
